Location: Clason Point
(40.8136°N, 73.8618°W)
Time: 19:49:39
(UTC+00:00)

Cosmos 1025 Rocket - Pass Details

Date: 16 September 2019
Orbit: 593 x 619 km, 82.5° (Epoch: 20 October)

Event Time Altitude Azimuth Distance (km) Brightness Sun altitude
Rises 23:42:23 0° 357° (N) 2,845 6.6 -8.2°
Reaches altitude 10° 23:44:39 10° 3° (N) 1,937 5.7 -8.6°
Maximum altitude 23:48:49 50° 79° (E) 758 3.2 -9.4°
Drops below altitude 10° 23:52:56 10° 156° (SSE) 1,920 5.2 -10.2°
Sets 23:55:11 0° 161° (SSE) 2,818 6.1 -10.6°
